Juliana Airport, Sint Maarten

1:55 PM AST on October 18, 2017 (GMT -0400)
Princess Juliana International

Weather History for TNCM - March, 2014

Change the Weather History Date:

Tuesday, March 4, 2014

  Actual Average Record
Temperature  
Mean Temperature 77 °F -  
Max Temperature 82 °F 82 °F 86 °F (1998)
Min Temperature 72 °F 72 °F 71 °F (2008)
Cooling Degree Days 12    
Growing Degree Days 27 (Base 50)    
Moisture  
Dew Point 68 °F    
Average Humidity 70    
Maximum Humidity 83    
Minimum Humidity 52    
Precipitation  
Precipitation 0.08 in 0.06 in - ()
Sea Level Pressure  
Sea Level Pressure 30.01 in    
Wind  
Wind Speed 7 mph ()    
Max Wind Speed 10 mph    
Max Gust Speed -    
Visibility 6.3 miles    
Events Rain    
Averages and records for this station are not official NWS values.
T = Trace of Precipitation, MM = Missing Value Source: Averaged Metar Reports

Daily Weather History Graph

Daily Weather History Graph

Search for Another Location

Airport or City:

Trip Planner

Search our weather history database for the weather conditions in past years. The results will help you decide how hot, cold, wet, or windy it might be!

Date:

Astronomy

Mar. 04, 2014 Rise Set
Actual Time 6:29 AM AST 6:19 PM AST
Civil Twilight 6:07 AM AST 6:41 PM AST
Nautical Twilight 5:41 AM AST 7:06 PM AST
Astronomical Twilight 5:16 AM AST 7:31 PM AST
Moon 8:47 AM AST (3/4) 9:42 PM AST (3/4)
Length of Visible Light 12h 34m
Length of Day
11h 50m
Waxing Crescent, 14% of the Moon is Illuminated
Mar 4
Waxing Crescent
Mar 8
First Quarter
Mar 16
Full
Mar 23
Last Quarter
Mar 30
New

Hourly Weather History & Observations

Time (AST) Temp. Heat Index Dew Point Humidity Pressure Visibility Wind Dir Wind Speed Gust Speed Precip Events Conditions
12:00 AM 75.2 °F - 68.0 °F 78% 30.01 in 6.2 mi ENE 6.9 mph - N/A   Partly Cloudy
1:00 AM 75.2 °F - 68.0 °F 78% 30.01 in 6.2 mi ENE 6.9 mph - N/A   Partly Cloudy
2:00 AM 76 °F - 68 °F 70% 29.99 in 22 mi NE 6.9 mph - -   Scattered Clouds
2:00 AM 75.2 °F - 68.0 °F 78% 29.98 in 6.2 mi NE 6.9 mph - N/A   Partly Cloudy
3:00 AM 75.2 °F - 68.0 °F 78% 29.95 in 6.2 mi ENE 5.8 mph - N/A   Partly Cloudy
4:00 AM 75.2 °F - 68.0 °F 78% 29.95 in 6.2 mi ENE 6.9 mph - N/A   Partly Cloudy
5:00 AM 75 °F - 68 °F 74% 29.97 in 22 mi East 5.8 mph - -   Scattered Clouds
5:00 AM 75.2 °F - 68.0 °F 78% 29.95 in 6.2 mi East 5.8 mph - N/A   Partly Cloudy
6:00 AM 75.2 °F - 68.0 °F 78% 29.98 in 6.2 mi ENE 5.8 mph - N/A   Scattered Clouds
6:19 AM 75.2 °F - 68.0 °F 78% 29.98 in 2.5 mi NE 5.8 mph - N/A   Scattered Clouds
7:00 AM 75.2 °F - 69.8 °F 83% 29.98 in 6.2 mi NE 6.9 mph - N/A   Scattered Clouds
8:00 AM 75 °F - 69 °F 77% 30.03 in 12 mi ENE 6.9 mph - - Rain Light Rain Showers
8:00 AM 78.8 °F - 69.8 °F 74% 30.04 in 6.2 mi ENE 8.1 mph - N/A   Mostly Cloudy
10:00 AM 80.6 °F 83.2 °F 68.0 °F 65% 30.06 in 6.2 mi East 9.2 mph - N/A   Scattered Clouds
11:00 AM 81 °F - 67 °F 55% 30.07 in 28 mi ENE 9.2 mph - -   Mostly Cloudy
11:00 AM 80.6 °F 83.2 °F 68.0 °F 65% 30.06 in 6.2 mi ENE 9.2 mph - N/A   Mostly Cloudy
12:00 PM 82.4 °F 85.4 °F 68.0 °F 62% 30.04 in 6.2 mi East 9.2 mph - N/A   Scattered Clouds
1:00 PM 82.4 °F 85.4 °F 68.0 °F 62% 30.01 in 6.2 mi ESE 9.2 mph - N/A   Scattered Clouds
2:00 PM 82 °F - 67 °F 52% 30.00 in 40 mi ESE 8.1 mph - -   Partly Cloudy
2:00 PM 82.4 °F 84.6 °F 66.2 °F 58% 29.98 in 6.2 mi North - - N/A   Scattered Clouds
3:00 PM 80.6 °F 83.2 °F 68.0 °F 65% 29.98 in 6.2 mi ESE 10.4 mph - N/A   Partly Cloudy
4:00 PM 80.6 °F 83.2 °F 68.0 °F 65% 29.95 in 6.2 mi ESE 9.2 mph - N/A   Scattered Clouds
5:00 PM 80 °F - 68 °F 59% 29.98 in 40 mi East 9.2 mph - -   Scattered Clouds
5:00 PM 80.6 °F 83.2 °F 68.0 °F 65% 29.98 in 6.2 mi East 9.2 mph - N/A   Partly Cloudy
6:00 PM 78.8 °F - 68.0 °F 69% 30.01 in 6.2 mi East 8.1 mph - N/A   Scattered Clouds
7:00 PM 77.0 °F - 68.0 °F 74% 30.01 in 6.2 mi East 9.2 mph - N/A   Partly Cloudy
8:00 PM 77 °F - 68 °F 66% 30.03 in 37 mi East 8.1 mph - -   Scattered Clouds
8:00 PM 77.0 °F - 68.0 °F 74% 30.01 in 6.2 mi East 8.1 mph - N/A   Partly Cloudy
9:00 PM 77.0 °F - 68.0 °F 74% 30.04 in 6.2 mi ENE 5.8 mph - N/A   Partly Cloudy
10:00 PM 77.0 °F - 68.0 °F 74% 30.04 in 6.2 mi East 8.1 mph - N/A   Partly Cloudy
11:00 PM 77 °F - 68 °F 66% 30.06 in 34 mi East 9.2 mph - -   Scattered Clouds
11:00 PM 77.0 °F - 68.0 °F 74% 30.04 in 6.2 mi East 9.2 mph - N/A   Partly Cloudy